GW3271 Weather Reports


Display with metric or nautical units.
time (UTC)temp
F
wind
direction
speed
MPH
gust
MPH
rain 1hr
in
rain 24hr
in
rain mn
in
humidity
%
barometer
mb
20260505234530 83 209 0.0 5.0 0.00 0.00 0.00 71 1006.0
20260505233032 83 247 1.0 4.0 0.00 0.00 0.00 70 1005.9
20260505231536 84 269 2.0 5.0 0.00 0.00 0.00 70 1005.8
20260505230028 84 230 0.0 5.0 0.00 0.00 0.00 69 1005.6
20260505224528 84 251 1.0 5.0 0.00 0.00 0.00 68 1005.6
20260505223033 85 153 2.0 6.0 0.00 0.00 0.00 68 1005.6
20260505221600 85 224 2.0 6.0 0.00 0.00 0.00 67 1005.6
20260505220046 86 184 2.0 5.0 0.00 0.00 0.00 66 1005.8
20260505214532 85 264 2.0 9.0 0.00 0.00 0.00 66 1006.0
20260505213028 86 233 3.0 7.0 0.00 0.00 0.00 65 1006.3
20260505211537 85 277 3.0 8.0 0.00 0.00 0.00 68 1006.1
20260505210028 84 121 2.0 9.0 0.00 0.00 0.00 69 1006.4
20260505204529 84 269 3.0 11.0 0.00 0.00 0.00 68 1006.6
20260505203028 83 282 2.0 6.0 0.00 0.00 0.00 70 1007.0
20260505201527 83 276 2.0 6.0 0.00 0.00 0.00 71 1007.4
20260505200030 82 221 1.0 7.0 0.00 0.00 0.00 71 1007.4
20260505194528 82 293 2.0 7.0 0.00 0.00 0.00 72 1007.6
20260505193035 81 232 3.0 6.0 0.00 0.00 0.00 72 1007.8
20260505191526 81 262 2.0 7.0 0.00 0.00 0.00 73 1007.8
20260505190030 81 170 3.0 6.0 0.00 0.00 0.00 75 1007.9
20260505184530 79 177 1.0 5.0 0.00 0.00 0.00 77 1008.1
20260505183036 79 217 2.0 9.0 0.00 0.00 0.00 78 1008.5
20260505181530 78 196 1.0 9.0 0.00 0.00 0.00 78 1008.6
20260505180027 77 283 3.0 7.0 0.00 0.00 0.00 80 1008.7
20260505174526 77 233 1.0 6.0 0.00 0.00 0.00 80 1008.9
20260505173028 76 0 1.0 9.0 0.00 0.00 0.00 82 1008.9
20260505171528 75 269 1.0 4.0 0.00 0.00 0.00 82 1009.0
20260505170030 75 270 2.0 4.0 0.00 0.00 0.00 83 1009.1
20260505164545 74 274 0.0 3.0 0.00 0.00 0.00 84 1009.0
20260505163028 74 255 2.0 7.0 0.00 0.00 0.00 85 1008.9
20260505161535 73 266 0.0 4.0 0.00 0.00 0.00 86 1009.1
20260505153029 72 263 1.0 4.0 0.00 0.00 0.00 87 1009.3
20260505151527 72 251 1.0 8.0 0.00 0.00 0.00 87 1009.1
20260505124536 71 271 2.0 9.0 0.00 0.00 0.00 89 1007.9
20260505123028 70 269 3.0 11.0 0.00 0.00 0.00 89 1007.8
20260505121533 70 165 3.0 8.0 0.00 0.00 0.00 89 1007.6
20260505120034 70 261 2.0 6.0 0.00 0.00 0.00 88 1007.4
20260505114530 70 237 2.0 6.0 0.00 0.00 0.00 88 1007.5
20260505113027 70 180 3.0 12.0 0.00 0.00 0.00 87 1007.5
20260505111529 70 264 1.0 7.0 0.00 0.00 0.00 87 1007.5
20260505101525 70 207 1.0 7.0 0.00 0.00 0.00 87 1007.8
20260505100029 70 239 1.0 8.0 0.00 0.00 0.00 87 1007.8
20260505094530 70 245 2.0 9.0 0.00 0.00 0.00 86 1007.6
20260505093027 70 200 1.0 9.0 0.00 0.00 0.00 86 1007.8
20260505091525 70 266 3.0 9.0 0.00 0.00 0.00 85 1007.7
20260505090027 70 272 1.0 10.0 0.00 0.00 0.00 85 1007.8
20260505084542 70 257 2.0 11.0 0.00 0.00 0.00 85 1007.8
20260505083026 70 257 3.0 7.0 0.00 0.00 0.00 85 1007.9
20260505081527 70 262 1.0 8.0 0.00 0.00 0.00 86 1008.3
20260505080028 71 255 2.0 8.0 0.00 0.00 0.00 85 1008.4
20260505074531 71 257 1.0 6.0 0.00 0.00 0.00 85 1008.6
20260505073033 71 257 4.0 9.0 0.00 0.00 0.00 84 1008.7
20260505071529 71 233 2.0 12.0 0.00 0.00 0.00 84 1009.0
20260505070036 71 240 3.0 9.0 0.00 0.00 0.00 84 1009.0
20260505064526 71 248 5.0 12.0 0.00 0.00 0.00 84 1009.2
20260505063032 71 239 3.0 13.0 0.00 0.00 0.00 84 1009.4
20260505061528 71 283 3.0 11.0 0.00 0.00 0.00 84 1009.5
20260505060034 71 276 3.0 8.0 0.00 0.00 0.00 83 1009.5
20260505054526 71 264 3.0 11.0 0.00 0.00 0.00 83 1009.5
20260505053040 72 226 3.0 8.0 0.00 0.00 0.00 83 1009.5
20260505051528 72 236 1.0 10.0 0.00 0.00 0.00 82 1009.6
20260505041532 73 262 2.0 11.0 0.00 0.00 0.00 80 1009.4
20260505040028 73 272 3.0 8.0 0.00 0.00 0.00 79 1009.5
20260505034532 74 281 3.0 9.0 0.00 0.00 0.00 79 1009.4
20260505033027 74 276 1.0 7.0 0.00 0.00 0.00 78 1009.3
20260505031527 75 240 0.0 4.0 0.00 0.00 0.00 77 1009.4
20260505030026 75 246 1.0 9.0 0.00 0.00 0.00 76 1009.4
20260505024527 75 278 1.0 8.0 0.00 0.00 0.00 75 1009.3
20260505023029 76 276 2.0 6.0 0.00 0.00 0.00 75 1009.2
20260505021530 76 221 1.0 5.0 0.00 0.00 0.00 74 1009.2
20260505020029 76 252 1.0 4.0 0.00 0.00 0.00 73 1009.1
20260505014527 77 240 2.0 6.0 0.00 0.00 0.00 71 1009.0
20260505013029 78 257 1.0 4.0 0.00 0.00 0.00 69 1009.0
20260505011544 78 236 1.0 4.0 0.00 0.00 0.00 67 1008.9
20260505010026 79 0 1.0 5.0 0.00 0.00 0.00 65 1008.8
20260505004528 79 297 1.0 5.0 0.00 0.00 0.00 64 1008.8
20260505003031 80 281 2.0 9.0 0.00 0.00 0.00 62 1008.7
20260505001529 80 269 2.0 9.0 0.00 0.00 0.00 61 1008.5
20260505000037 80 270 3.0 9.0 0.00 0.00 0.00 60 1008.7